| time (UTC) | temp F | wind direction | speed MPH | gust MPH | rain 1hr in | rain 24hr in | rain mn in | humidity % | barometer mb |
| 20260506044600 | 58 | 120 | 0.0 | 1.0 | 0.31 | 0.86 | 0.28 | 91 | 1007.5 |
| 20260506043053 | 58 | 0 | 0.0 | 1.0 | 0.19 | 0.74 | 0.16 | 91 | 1007.6 |
| 20260506041547 | 58 | 0 | 0.0 | 1.0 | 0.12 | 0.66 | 0.08 | 91 | 1007.4 |
| 20260506040050 | 58 | 0 | 0.0 | 1.0 | 0.04 | 0.58 | 0.00 | 91 | 1007.5 |
| 20260506034557 | 59 | 119 | 0.0 | 1.0 | 0.01 | 0.55 | 0.55 | 91 | 1007.3 |
| 20260506033047 | 59 | 83 | 0.0 | 2.0 | 0.02 | 0.55 | 0.55 | 91 | 1007.7 |
| 20260506031547 | 59 | 71 | 0.0 | 3.0 | 0.01 | 0.54 | 0.54 | 91 | 1007.9 |
| 20260506030046 | 59 | 77 | 0.0 | 2.0 | 0.01 | 0.54 | 0.54 | 91 | 1008.1 |
| 20260506024545 | 60 | 96 | 1.0 | 3.0 | 0.01 | 0.54 | 0.54 | 91 | 1008.1 |
| 20260506023046 | 59 | 0 | 0.0 | 1.0 | 0.00 | 0.52 | 0.52 | 91 | 1008.3 |
| 20260506021554 | 59 | 0 | 0.0 | 0.0 | 0.00 | 0.52 | 0.52 | 91 | 1008.2 |
| 20260506020044 | 59 | 0 | 0.0 | 0.0 | 0.00 | 0.52 | 0.52 | 91 | 1008.1 |
| 20260506014543 | 59 | 0 | 0.0 | 0.0 | 0.00 | 0.52 | 0.52 | 91 | 1007.9 |
| 20260506013045 | 59 | 0 | 0.0 | 0.0 | 0.00 | 0.52 | 0.52 | 91 | 1007.8 |
| 20260506011552 | 59 | 0 | 0.0 | 0.0 | 0.01 | 0.52 | 0.52 | 91 | 1007.5 |
| 20260506010056 | 59 | 0 | 0.0 | 0.0 | 0.01 | 0.52 | 0.52 | 90 | 1007.5 |
| 20260506004544 | 59 | 0 | 0.0 | 0.0 | 0.01 | 0.52 | 0.52 | 90 | 1007.3 |
| 20260506003046 | 59 | 0 | 0.0 | 0.0 | 0.02 | 0.52 | 0.52 | 90 | 1007.4 |
| 20260506001546 | 60 | 0 | 0.0 | 0.0 | 0.03 | 0.52 | 0.52 | 90 | 1007.8 |
| 20260506000046 | 60 | 0 | 0.0 | 0.0 | 0.06 | 0.52 | 0.52 | 90 | 1007.5 |
| 20260505234606 | 60 | 0 | 0.0 | 0.0 | 0.09 | 0.52 | 0.52 | 90 | 1007.7 |
| 20260505233048 | 61 | 0 | 0.0 | 0.0 | 0.14 | 0.51 | 0.51 | 90 | 1007.8 |
| 20260505231547 | 61 | 0 | 0.0 | 0.0 | 0.15 | 0.49 | 0.49 | 90 | 1008.2 |
| 20260505230049 | 61 | 0 | 0.0 | 0.0 | 0.12 | 0.46 | 0.46 | 89 | 1008.6 |
| 20260505224546 | 62 | 0 | 0.0 | 0.0 | 0.08 | 0.42 | 0.42 | 89 | 1008.5 |
| 20260505223053 | 62 | 0 | 0.0 | 0.0 | 0.03 | 0.37 | 0.37 | 89 | 1008.4 |
| 20260505221544 | 62 | 0 | 0.0 | 1.0 | 0.00 | 0.34 | 0.34 | 90 | 1008.2 |
| 20260505220050 | 62 | 193 | 0.0 | 1.0 | 0.00 | 0.34 | 0.34 | 90 | 1008.0 |
| 20260505214554 | 62 | 0 | 0.0 | 0.0 | 0.00 | 0.34 | 0.34 | 90 | 1008.3 |
| 20260505213045 | 62 | 194 | 0.0 | 1.0 | 0.01 | 0.34 | 0.34 | 90 | 1008.5 |
| 20260505211556 | 62 | 0 | 0.0 | 1.0 | 0.01 | 0.34 | 0.34 | 90 | 1008.7 |
| 20260505210048 | 62 | 0 | 0.0 | 0.0 | 0.01 | 0.34 | 0.34 | 90 | 1009.0 |
| 20260505204545 | 61 | 0 | 0.0 | 0.0 | 0.02 | 0.34 | 0.34 | 90 | 1009.1 |
| 20260505203102 | 61 | 0 | 0.0 | 0.0 | 0.04 | 0.33 | 0.33 | 89 | 1009.4 |
| 20260505201548 | 61 | 0 | 0.0 | 0.0 | 0.08 | 0.33 | 0.33 | 89 | 1009.6 |
| 20260505200048 | 61 | 0 | 0.0 | 0.0 | 0.13 | 0.33 | 0.33 | 89 | 1010.0 |
| 20260505194545 | 61 | 0 | 0.0 | 0.0 | 0.15 | 0.32 | 0.32 | 89 | 1010.0 |
| 20260505193047 | 61 | 0 | 0.0 | 0.0 | 0.20 | 0.29 | 0.29 | 88 | 1010.2 |
| 20260505191554 | 61 | 0 | 0.0 | 1.0 | 0.24 | 0.24 | 0.24 | 88 | 1010.3 |
| 20260505190048 | 61 | 0 | 0.0 | 0.0 | 0.19 | 0.19 | 0.19 | 88 | 1010.3 |
| 20260505184550 | 62 | 0 | 0.0 | 1.0 | 0.17 | 0.17 | 0.17 | 87 | 1010.6 |
| 20260505183048 | 63 | 0 | 0.0 | 2.0 | 0.09 | 0.09 | 0.09 | 85 | 1010.8 |
| 20260505181544 | 65 | 106 | 1.0 | 4.0 | 0.00 | 0.00 | 0.00 | 80 | 1010.6 |
| 20260505180047 | 68 | 82 | 2.0 | 4.0 | 0.00 | 0.00 | 0.00 | 74 | 1010.4 |
| 20260505174545 | 69 | 52 | 1.0 | 4.0 | 0.00 | 0.00 | 0.00 | 74 | 1010.0 |
| 20260505173045 | 68 | 127 | 1.0 | 4.0 | 0.00 | 0.00 | 0.00 | 73 | 1010.1 |
| 20260505171543 | 67 | 67 | 1.0 | 4.0 | 0.00 | 0.00 | 0.00 | 77 | 1010.7 |
| 20260505170048 | 66 | 84 | 0.0 | 2.0 | 0.00 | 0.00 | 0.00 | 76 | 1010.8 |
| 20260505164546 | 66 | 240 | 1.0 | 2.0 | 0.00 | 0.00 | 0.00 | 75 | 1011.0 |
| 20260505163046 | 66 | 59 | 1.0 | 3.0 | 0.00 | 0.00 | 0.00 | 74 | 1011.1 |
| 20260505161551 | 65 | 259 | 1.0 | 3.0 | 0.00 | 0.00 | 0.00 | 75 | 1011.2 |
| 20260505153052 | 65 | 82 | 1.0 | 3.0 | 0.00 | 0.01 | 0.00 | 75 | 1011.2 |
| 20260505151547 | 64 | 78 | 0.0 | 2.0 | 0.00 | 0.01 | 0.00 | 75 | 1011.0 |
| 20260505124602 | 60 | 0 | 0.0 | 3.0 | 0.00 | 0.02 | 0.00 | 82 | 1011.0 |
| 20260505123058 | 60 | 0 | 0.0 | 1.0 | 0.00 | 0.02 | 0.00 | 83 | 1011.3 |
| 20260505121548 | 60 | 0 | 0.0 | 0.0 | 0.00 | 0.02 | 0.00 | 82 | 1011.4 |
| 20260505120105 | 60 | 170 | 0.0 | 0.0 | 0.00 | 0.02 | 0.00 | 82 | 1011.3 |
| 20260505114549 | 59 | 0 | 0.0 | 1.0 | 0.00 | 0.02 | 0.00 | 82 | 1011.1 |
| 20260505113057 | 59 | 0 | 0.0 | 0.0 | 0.00 | 0.02 | 0.00 | 82 | 1011.1 |
| 20260505111548 | 59 | 0 | 0.0 | 0.0 | 0.00 | 0.02 | 0.00 | 82 | 1011.2 |
| 20260505101557 | 62 | 0 | 0.0 | 5.0 | 0.00 | 0.02 | 0.00 | 76 | 1011.4 |
| 20260505100047 | 63 | 144 | 1.0 | 2.0 | 0.00 | 0.02 | 0.00 | 73 | 1011.4 |
| 20260505094552 | 63 | 101 | 1.0 | 2.0 | 0.00 | 0.03 | 0.00 | 69 | 1011.1 |
| 20260505093051 | 63 | 74 | 0.0 | 2.0 | 0.00 | 0.03 | 0.00 | 69 | 1010.1 |
| 20260505091549 | 62 | 71 | 1.0 | 2.0 | 0.00 | 0.03 | 0.00 | 70 | 1009.7 |
| 20260505090055 | 63 | 72 | 1.0 | 2.0 | 0.00 | 0.03 | 0.00 | 69 | 1009.7 |
| 20260505084546 | 63 | 66 | 1.0 | 3.0 | 0.00 | 0.03 | 0.00 | 68 | 1009.3 |
| 20260505083102 | 63 | 91 | 1.0 | 4.0 | 0.00 | 0.03 | 0.00 | 69 | 1009.2 |
| 20260505081544 | 63 | 68 | 1.0 | 2.0 | 0.00 | 0.03 | 0.00 | 69 | 1009.0 |
| 20260505080045 | 64 | 70 | 1.0 | 3.0 | 0.00 | 0.03 | 0.00 | 67 | 1008.9 |
| 20260505074543 | 64 | 68 | 1.0 | 3.0 | 0.00 | 0.03 | 0.00 | 66 | 1008.9 |
| 20260505073050 | 65 | 68 | 2.0 | 3.0 | 0.00 | 0.03 | 0.00 | 66 | 1008.8 |
| 20260505071546 | 65 | 82 | 1.0 | 3.0 | 0.00 | 0.03 | 0.00 | 65 | 1008.7 |
| 20260505070101 | 65 | 51 | 2.0 | 3.0 | 0.00 | 0.03 | 0.00 | 65 | 1008.7 |
| 20260505064553 | 65 | 93 | 2.0 | 4.0 | 0.00 | 0.03 | 0.00 | 64 | 1008.7 |
| 20260505063043 | 65 | 91 | 2.0 | 5.0 | 0.00 | 0.03 | 0.00 | 64 | 1008.6 |
| 20260505061609 | 65 | 78 | 2.0 | 3.0 | 0.00 | 0.03 | 0.00 | 65 | 1008.7 |
| 20260505060053 | 64 | 85 | 1.0 | 3.0 | 0.00 | 0.03 | 0.00 | 66 | 1008.7 |
| 20260505054551 | 64 | 63 | 1.0 | 3.0 | 0.00 | 0.03 | 0.00 | 68 | 1008.6 |
| 20260505053046 | 64 | 62 | 1.0 | 2.0 | 0.00 | 0.03 | 0.00 | 69 | 1008.7 |